FW7828 Weather Reports


time (UTC)temp
F
wind
direction
speed
knots
gust
knots
rain 1hr
in
rain 24hr
in
rain mn
in
humidity
%
barometer
mb
20240723050738 78 167 0.9 1.7 0.00 0.02 0.02 99 1015.8
20240723050236 78 182 3.5 5.2 0.00 0.02 0.02 99 1015.9
20240723045734 77 177 3.5 4.3 0.00 0.02 0.02 99 1016.0
20240723045233 77 167 2.6 2.6 0.00 0.02 0.02 99 1015.8
20240723044732 77 164 2.6 2.6 0.00 0.02 0.02 99 1016.0
20240723044230 77 181 2.6 2.6 0.00 0.02 0.02 99 1015.9
20240723043727 77 105 1.7 2.6 0.07 0.02 0.02 99 1016.0
20240723043226 77 168 0.9 2.6 0.07 0.02 0.02 99 1016.1
20240723042723 77 207 0.0 0.9 0.00 0.00 0.00 99 1016.1
20240723042221 77 219 0.0 0.0 0.00 0.00 0.00 99 1016.1
20240723041721 76 205 0.0 0.0 0.00 0.00 0.00 99 1016.3
20240723041219 76 161 2.6 5.2 0.04 0.00 0.00 99 1016.3
20240723040715 76 208 0.0 0.0 0.11 0.00 0.00 99 1016.3
20240723040213 76 218 0.0 0.9 0.11 0.00 0.00 99 1016.4
20240723035712 75 202 0.9 0.9 0.11 0.42 0.42 99 1016.7
20240723035212 75 331 0.0 0.0 0.18 0.41 0.41 99 1016.6
20240723034710 75 274 0.9 0.9 0.11 0.40 0.40 99 1017.0
20240723034209 75 226 0.0 0.0 0.11 0.39 0.39 99 1016.8
20240723033704 75 223 0.0 0.0 0.11 0.38 0.38 99 1016.8
20240723033204 75 227 0.9 0.9 0.04 0.37 0.37 99 1016.9
20240723032701 75 244 1.7 1.7 0.07 0.36 0.36 99 1017.0
20240723032159 75 249 0.9 0.9 0.07 0.36 0.36 99 1016.7
20240723031656 75 233 0.0 0.0 0.00 0.35 0.35 99 1016.8
20240723031154 75 291 0.9 0.9 0.00 0.35 0.35 99 1016.9
20240723030653 75 263 0.9 0.9 0.00 0.35 0.35 99 1017.0
20240723030152 75 223 0.9 1.7 0.04 0.35 0.35 99 1017.0
20240723025651 75 231 0.0 0.0 0.11 0.35 0.35 99 1016.8
20240723025150 75 234 0.0 0.0 0.11 0.34 0.34 99 1016.6
20240723024649 75 244 0.0 0.9 0.11 0.33 0.33 99 1016.5
20240723024148 75 202 0.9 0.9 0.11 0.32 0.32 99 1016.5
20240723023645 75 218 0.9 0.9 0.11 0.31 0.31 98 1016.6
20240723023145 75 167 2.6 4.3 0.07 0.30 0.30 99 1016.6
20240723022643 75 216 0.0 0.9 0.00 0.29 0.29 99 1016.6
20240723022142 75 235 0.0 0.0 0.00 0.29 0.29 99 1016.6
20240723021640 74 330 0.0 0.0 0.07 0.29 0.29 99 1016.5
20240723021139 74 316 0.0 0.0 0.07 0.29 0.29 99 1016.4
20240723020637 74 200 0.9 0.9 0.00 0.28 0.28 99 1016.0
20240723020136 74 208 0.0 0.0 0.00 0.28 0.28 99 1016.1
20240723015632 74 203 0.0 0.0 0.00 0.28 0.28 99 1016.2
20240723015131 74 218 0.0 0.0 0.00 0.28 0.28 99 1016.3
20240723014628 74 208 0.9 0.9 0.00 0.28 0.28 99 1016.1
20240723014127 74 216 0.0 0.0 0.00 0.28 0.28 99 1016.2
20240723013625 74 169 1.7 1.7 0.00 0.28 0.28 99 1016.0
20240723013123 74 198 1.7 1.7 0.00 0.28 0.28 99 1016.0
20240723012623 74 218 0.0 0.9 0.00 0.28 0.28 99 1015.8
20240723012120 74 223 0.0 0.0 0.04 0.28 0.28 99 1015.8
20240723011618 74 169 3.5 4.3 0.11 0.28 0.28 99 1015.8
20240723011116 74 218 0.0 0.9 0.35 0.28 0.28 99 1016.2
20240723010613 74 185 0.9 1.7 0.23 0.26 0.26 99 1016.3
20240723010111 74 198 0.9 0.9 0.00 0.22 0.22 99 1016.2
20240723005610 73 207 0.9 0.9 0.00 0.22 0.22 99 1016.1
20240723005108 74 227 0.9 0.9 0.04 0.22 0.22 99 1016.0
20240723004607 74 225 1.7 1.7 0.28 0.22 0.22 98 1016.0
20240723004105 75 216 2.6 2.6 0.78 0.21 0.21 98 1015.7
20240723003605 75 204 0.9 1.7 1.08 0.18 0.18 96 1015.8
20240723003105 78 331 3.5 5.2 0.54 0.09 0.09 91 1015.3
20240723002559 81 208 0.9 1.7 0.00 0.00 0.00 95 1014.8
20240723002057 81 161 3.5 5.2 0.00 0.00 0.00 94 1014.7
20240723001557 81 170 3.5 4.3 0.00 0.00 0.00 94 1014.9
20240723001056 81 152 4.3 5.2 0.00 0.00 0.00 93 1014.9
20240723000554 81 162 2.6 4.3 0.00 0.00 0.00 94 1015.0
20240723000053 81 185 0.9 0.9 0.00 0.00 0.00 94 1015.0
20240722235552 81 179 2.6 2.6 0.00 0.00 0.00 94 1015.0
20240722235051 81 187 2.6 2.6 0.00 0.00 0.00 93 1014.7
20240722234551 81 168 3.5 4.3 0.00 0.00 0.00 93 1014.7
20240722234049 81 178 1.7 4.3 0.00 0.00 0.00 93 1015.0
20240722233545 81 152 2.6 2.6 0.00 0.00 0.00 93 1014.8
20240722233044 81 188 2.6 2.6 0.00 0.00 0.00 93 1014.9
20240722232541 82 169 1.7 2.6 0.00 0.00 0.00 93 1014.8
20240722232040 82 161 0.9 1.7 0.00 0.00 0.00 92 1014.9
20240722231536 81 182 0.9 0.9 0.00 0.00 0.00 92 1015.1
20240722231036 82 174 2.6 4.3 0.00 0.00 0.00 93 1014.9
20240722230532 82 196 0.0 0.0 0.00 0.00 0.00 94 1014.9
20240722230031 82 179 2.6 2.6 0.00 0.00 0.00 93 1014.9
20240722225531 82 204 0.0 0.9 0.00 0.00 0.00 93 1015.0
20240722225029 82 208 0.0 0.0 0.00 0.00 0.00 93 1015.1
20240722224526 82 192 0.0 0.0 0.00 0.00 0.00 93 1015.1
20240722224025 82 201 0.0 0.9 0.00 0.00 0.00 93 1014.9
20240722223522 82 169 0.9 1.7 0.00 0.00 0.00 93 1014.8
20240722223021 82 182 0.9 0.9 0.00 0.00 0.00 92 1014.9
20240722222520 82 179 0.0 1.7 0.00 0.00 0.00 92 1015.2
20240722222019 82 303 0.9 0.9 0.00 0.00 0.00 92 1014.9
20240722221515 82 186 0.0 0.0 0.00 0.00 0.00 91 1014.9
20240722221014 82 161 1.7 4.3 0.00 0.00 0.00 92 1014.9
20240722220513 82 171 0.9 1.7 0.00 0.00 0.00 92 1014.7
20240722220013 82 192 0.0 0.9 0.00 0.00 0.00 92 1014.9
20240722215511 81 270 0.0 0.9 0.00 0.00 0.00 92 1014.9
20240722215010 81 157 0.9 1.7 0.00 0.00 0.00 93 1015.0
20240722214506 82 166 0.0 0.0 0.00 0.00 0.00 94 1014.7
20240722214006 81 189 0.9 1.7 0.00 0.00 0.00 92 1014.8
20240722213503 81 183 0.0 0.9 0.00 0.00 0.00 93 1014.8
20240722213000 81 194 0.0 0.0 0.00 0.00 0.00 94 1014.7
20240722212500 81 177 0.0 0.9 0.00 0.00 0.00 95 1014.7
20240722211958 81 176 0.9 1.7 0.00 0.00 0.00 94 1014.3
20240722211457 81 169 2.6 2.6 0.00 0.00 0.00 94 1014.4
20240722210956 81 182 2.6 4.3 0.00 0.00 0.00 94 1014.5
20240722210453 81 187 2.6 2.6 0.00 0.00 0.00 93 1014.5
20240722205953 83 173 2.6 2.6 0.00 0.00 0.00 92 1014.5
20240722205448 83 172 1.7 2.6 0.00 0.00 0.00 88 1014.5
20240722204946 83 165 3.5 4.3 0.00 0.00 0.00 88 1014.5
20240722204446 83 181 3.5 4.3 0.00 0.00 0.00 89 1014.6
20240722203944 83 173 0.9 1.7 0.00 0.00 0.00 90 1014.6
20240722203443 83 186 0.0 0.0 0.00 0.00 0.00 91 1014.5
20240722202942 83 169 0.0 1.7 0.00 0.00 0.00 89 1014.6
20240722202439 83 186 0.9 0.9 0.00 0.00 0.00 89 1014.4
20240722201939 83 186 0.9 0.9 0.00 0.00 0.00 88 1014.5
20240722201437 83 187 3.5 4.3 0.00 0.00 0.00 88 1014.8
20240722200935 84 167 2.6 2.6 0.00 0.00 0.00 88 1014.7
20240722200431 84 163 3.5 4.3 0.00 0.00 0.00 87 1014.7
20240722195931 84 163 3.5 4.3 0.00 0.00 0.00 86 1014.9
20240722195426 84 161 1.7 1.7 0.00 0.00 0.00 86 1015.3
20240722194924 84 197 0.9 0.9 0.00 0.00 0.00 86 1015.4
20240722194423 84 168 2.6 2.6 0.00 0.00 0.00 85 1015.2
20240722193922 84 157 1.7 1.7 0.00 0.00 0.00 83 1015.4
20240722193419 84 166 3.5 4.3 0.00 0.00 0.00 83 1015.3
20240722192919 84 181 4.3 5.2 0.00 0.00 0.00 83 1015.1
20240722192417 84 168 2.6 4.3 0.00 0.00 0.00 83 1014.8
20240722191917 85 177 3.5 4.3 0.00 0.00 0.00 84 1014.7
20240722191415 85 190 3.5 4.3 0.00 0.00 0.00 82 1014.9
20240722190915 86 175 3.5 4.3 0.00 0.00 0.00 79 1015.0
20240722190414 86 176 2.6 2.6 0.00 0.00 0.00 80 1015.3
20240722185913 87 166 2.6 2.6 0.00 0.00 0.00 77 1015.2
20240722185411 87 170 1.7 4.3 0.00 0.00 0.00 79 1015.2
20240722184909 87 172 2.6 2.6 0.00 0.00 0.00 77 1015.2
20240722184408 87 189 0.9 2.6 0.00 0.00 0.00 77 1015.5
20240722183907 88 180 2.6 2.6 0.00 0.00 0.00 77 1015.5
20240722183406 87 171 1.7 2.6 0.00 0.00 0.00 79 1015.5
20240722182904 87 160 4.3 7.0 0.00 0.00 0.00 80 1015.6
20240722182403 87 179 1.7 2.6 0.00 0.00 0.00 78 1015.8
20240722181900 86 180 1.7 2.6 0.00 0.00 0.00 81 1015.6
20240722181359 85 164 0.0 0.9 0.00 0.00 0.00 83 1015.6
20240722180856 85 186 1.7 1.7 0.00 0.00 0.00 82 1016.0
20240722180356 86 177 1.7 1.7 0.00 0.00 0.00 81 1015.6
20240722175854 86 168 1.7 1.7 0.00 0.00 0.00 79 1016.1
20240722175352 86 178 1.7 2.6 0.00 0.00 0.00 79 1016.2
20240722174848 87 175 0.9 1.7 0.00 0.00 0.00 80 1016.3
20240722174347 86 170 1.7 2.6 0.00 0.00 0.00 81 1016.2
20240722173846 86 179 2.6 2.6 0.00 0.00 0.00 81 1016.5
20240722173344 86 180 3.5 6.1 0.00 0.00 0.00 81 1016.6
20240722172841 86 164 1.7 1.7 0.00 0.00 0.00 83 1016.8
20240722172341 85 186 2.6 4.3 0.00 0.00 0.00 84 1016.7
20240722171839 85 169 2.6 2.6 0.00 0.00 0.00 84 1016.7
20240722171337 85 167 1.7 1.7 0.00 0.00 0.00 84 1016.6
20240722170835 85 162 1.7 1.7 0.00 0.00 0.00 82 1017.0
20240722170334 84 166 0.9 0.9 0.00 0.00 0.00 84 1016.8
20240722165833 83 170 0.0 0.0 0.00 0.00 0.00 85 1016.7
20240722165333 84 168 1.7 1.7 0.00 0.00 0.00 85 1016.8
20240722164831 84 358 0.9 0.9 0.00 0.00 0.00 86 1016.9
20240722164331 84 358 0.9 1.7 0.00 0.00 0.00 86 1016.9
20240722163829 85 354 0.0 0.9 0.00 0.00 0.00 84 1016.8
20240722163328 84 208 0.9 0.9 0.00 0.00 0.00 86 1017.0
20240722162827 83 173 0.0 0.9 0.00 0.00 0.00 85 1017.1
20240722162325 84 175 0.9 1.7 0.00 0.00 0.00 85 1016.9
20240722161824 84 186 0.9 0.9 0.00 0.00 0.00 84 1016.9
20240722161322 84 190 0.9 0.9 0.00 0.00 0.00 86 1017.2
20240722160822 85 100 0.9 1.7 0.00 0.00 0.00 83 1017.1
20240722160320 84 136 1.7 1.7 0.00 0.00 0.00 84 1017.3
20240722155818 84 149 0.9 1.7 0.00 0.00 0.00 82 1017.3
20240722155318 84 153 0.9 1.7 0.00 0.00 0.00 84 1017.5
20240722154816 83 191 0.0 0.0 0.00 0.00 0.00 85 1017.2
20240722154314 82 177 0.0 0.9 0.00 0.00 0.00 85 1017.5
20240722153813 83 184 0.0 0.9 0.00 0.00 0.00 86 1017.4
20240722153311 82 106 0.9 0.9 0.00 0.00 0.00 88 1017.4
20240722152810 81 106 0.9 0.9 0.00 0.00 0.00 88 1017.3
20240722152308 81 211 0.0 0.0 0.00 0.00 0.00 88 1017.4
20240722151806 81 172 0.9 0.9 0.00 0.00 0.00 90 1017.4
20240722151304 81 172 0.0 0.9 0.00 0.00 0.00 88 1017.3
20240722150801 81 176 0.9 0.9 0.00 0.00 0.00 89 1017.3
20240722150259 81 182 0.0 0.9 0.00 0.00 0.00 89 1017.3
20240722145758 81 187 0.9 0.9 0.00 0.00 0.00 88 1017.2
20240722145256 81 194 0.0 0.0 0.00 0.00 0.00 88 1017.2
20240722144755 80 185 0.9 0.9 0.00 0.00 0.00 90 1017.0
20240722144255 81 174 0.9 0.9 0.00 0.00 0.00 87 1017.2
20240722143753 81 229 0.0 0.9 0.00 0.00 0.00 89 1017.2
20240722143253 81 175 0.9 1.7 0.00 0.00 0.00 88 1017.2
20240722142751 81 200 0.0 0.0 0.00 0.00 0.00 88 1016.9
20240722142249 81 191 0.0 0.0 0.00 0.00 0.00 89 1017.0
20240722141749 80 175 0.0 0.0 0.00 0.00 0.00 89 1016.9
20240722141247 80 179 0.9 0.9 0.00 0.00 0.00 89 1017.1
20240722140743 80 179 0.9 0.9 0.00 0.00 0.00 89 1016.9
20240722140242 80 190 0.0 0.0 0.00 0.00 0.00 89 1017.1
20240722135740 80 168 1.7 1.7 0.00 0.00 0.00 88 1017.2
20240722135240 80 182 0.0 0.0 0.00 0.00 0.00 90 1017.3
20240722134738 80 175 0.0 0.0 0.00 0.00 0.00 90 1017.4
20240722134236 80 175 0.0 0.0 0.00 0.00 0.00 90 1017.4
20240722133735 80 142 0.9 0.9 0.00 0.00 0.00 89 1017.2
20240722133233 79 156 0.9 0.9 0.00 0.00 0.00 91 1017.2
20240722132733 79 208 0.9 0.9 0.00 0.00 0.00 94 1017.4
20240722132231 78 182 0.0 0.0 0.00 0.00 0.00 94 1017.4
20240722131730 78 212 0.0 0.0 0.00 0.00 0.00 95 1017.5
20240722131229 78 211 0.0 0.0 0.00 0.00 0.00 95 1017.2
20240722130728 78 164 0.9 0.9 0.00 0.00 0.00 96 1017.4
20240722130226 78 177 0.0 0.0 0.00 0.00 0.00 97 1017.5
20240722125723 77 189 0.0 0.0 0.00 0.00 0.00 97 1017.5
20240722125221 77 179 0.0 0.0 0.00 0.00 0.00 97 1017.3
20240722124721 77 185 0.0 0.0 0.00 0.00 0.00 98 1017.5
20240722124219 77 207 0.9 0.9 0.00 0.00 0.00 97 1017.4
20240722123716 77 172 0.0 0.0 0.00 0.00 0.00 98 1017.1
20240722123215 77 201 0.0 0.0 0.00 0.00 0.00 98 1017.4
20240722122714 77 211 0.0 0.0 0.00 0.00 0.00 98 1017.1
20240722122212 77 211 0.0 0.0 0.00 0.00 0.00 98 1017.0
20240722121711 78 212 0.9 0.9 0.00 0.00 0.00 97 1017.1
20240722121208 77 178 0.0 0.0 0.00 0.00 0.00 97 1017.1
20240722120705 77 178 0.0 0.0 0.00 0.00 0.00 97 1017.0
20240722120204 77 178 0.0 0.0 0.00 0.00 0.00 97 1017.0
20240722115703 77 178 0.0 0.0 0.00 0.00 0.00 97 1016.8
20240722115201 77 178 0.0 0.0 0.00 0.00 0.00 97 1016.9
20240722114700 77 178 0.0 0.0 0.00 0.00 0.00 97 1016.7
20240722114158 77 178 0.0 0.0 0.00 0.00 0.00 97 1016.5
20240722113655 77 178 0.0 0.0 0.00 0.00 0.00 97 1016.5
20240722113153 77 178 0.0 0.0 0.00 0.00 0.00 97 1016.4
20240722112651 77 178 0.0 0.0 0.00 0.00 0.00 97 1016.5
20240722112148 77 178 0.0 0.0 0.00 0.00 0.00 97 1016.3
20240722111647 77 142 0.0 0.0 0.00 0.00 0.00 96 1016.3
20240722111145 77 246 0.0 0.0 0.00 0.00 0.00 96 1016.6
20240722110644 78 205 0.0 0.0 0.00 0.00 0.00 96 1016.5
20240722110142 78 205 0.0 0.0 0.00 0.00 0.00 96 1016.6
20240722105642 78 227 0.0 0.0 0.00 0.00 0.00 95 1016.8
20240722105140 78 187 0.0 0.9 0.00 0.00 0.00 95 1016.4
20240722104640 78 254 0.0 0.0 0.00 0.00 0.00 95 1016.5
20240722104140 78 149 0.0 0.0 0.00 0.00 0.00 96 1016.4
20240722103638 78 164 0.0 0.0 0.00 0.00 0.00 96 1016.3
20240722103137 78 82 0.0 0.9 0.00 0.00 0.00 96 1016.0
20240722102636 78 160 1.7 1.7 0.00 0.00 0.00 96 1016.1
20240722102135 78 260 0.0 0.0 0.00 0.00 0.00 96 1015.9
20240722101634 78 161 0.9 1.7 0.00 0.00 0.00 97 1016.0
20240722101132 78 125 0.0 0.9 0.00 0.00 0.00 98 1015.9
20240722100632 78 227 0.0 0.0 0.00 0.00 0.00 98 1016.0
20240722100128 78 255 0.0 0.0 0.00 0.00 0.00 98 1016.1
20240722095627 78 234 0.0 0.0 0.00 0.00 0.00 98 1016.0
20240722095125 78 256 0.0 0.0 0.00 0.00 0.00 98 1015.8
20240722094623 78 276 0.0 0.0 0.00 0.00 0.00 98 1015.7
20240722094121 78 264 0.9 0.9 0.00 0.00 0.00 98 1016.0
20240722093618 78 58 0.0 0.9 0.00 0.00 0.00 98 1015.8
20240722093118 78 40 0.0 0.0 0.00 0.00 0.00 98 1015.7
20240722092616 78 24 0.0 0.0 0.00 0.00 0.00 98 1015.7
20240722092115 78 62 1.7 1.7 0.00 0.00 0.00 98 1015.9
20240722091615 78 256 0.0 0.0 0.00 0.00 0.00 98 1015.6
20240722091115 78 270 0.0 0.9 0.00 0.00 0.00 98 1015.8
20240722090614 78 331 0.9 0.9 0.00 0.00 0.00 98 1015.8
20240722090111 78 249 0.0 0.0 0.00 0.00 0.00 98 1015.6
20240722085609 78 266 0.9 0.9 0.00 0.00 0.00 98 1015.6
20240722085106 78 246 0.0 0.9 0.00 0.00 0.00 98 1015.6
20240722084605 78 258 0.0 0.0 0.00 0.00 0.00 98 1015.9
20240722084105 78 246 0.0 0.0 0.00 0.00 0.00 98 1015.7
20240722083605 78 304 1.7 1.7 0.00 0.00 0.00 98 1015.9
20240722083104 78 256 0.0 0.0 0.00 0.00 0.00 98 1015.8
20240722082602 78 259 0.0 0.0 0.00 0.00 0.00 98 1015.8
20240722082100 78 246 0.0 0.0 0.00 0.00 0.00 97 1015.8
20240722081557 78 246 0.0 0.0 0.00 0.00 0.00 97 1015.9
20240722081056 78 258 0.0 0.0 0.00 0.00 0.00 97 1015.9
20240722080554 78 231 0.9 0.9 0.00 0.00 0.00 97 1016.2
20240722080053 78 34 0.0 0.9 0.00 0.00 0.00 97 1016.1
20240722075552 78 226 0.9 0.9 0.00 0.00 0.00 97 1016.0
20240722075050 78 208 0.0 0.0 0.00 0.00 0.00 97 1015.9
20240722074549 78 283 0.9 1.7 0.00 0.00 0.00 97 1016.2
20240722074048 78 268 0.9 1.7 0.00 0.00 0.00 97 1016.0
20240722073546 78 246 0.0 0.9 0.00 0.00 0.00 98 1016.3
20240722073044 78 253 0.0 0.0 0.00 0.00 0.00 98 1016.1
20240722072543 77 274 0.0 0.0 0.00 0.00 0.00 98 1016.1
20240722072041 77 252 0.0 0.0 0.00 0.00 0.00 99 1016.2
20240722071537 77 246 0.0 0.9 0.00 0.00 0.00 99 1016.1
20240722071036 77 269 0.9 1.7 0.00 0.00 0.00 99 1016.4
20240722070535 77 273 0.9 0.9 0.00 0.00 0.00 99 1016.2
20240722070033 77 255 0.9 0.9 0.00 0.00 0.00 99 1016.2
20240722065530 77 235 0.0 0.0 0.00 0.00 0.00 99 1016.5
20240722065030 77 8 0.0 0.0 0.00 0.00 0.00 99 1016.4
20240722064527 77 193 2.6 4.3 0.00 0.00 0.00 99 1016.6
20240722064026 77 238 0.0 0.0 0.00 0.00 0.00 99 1016.3
20240722063521 77 231 0.0 0.0 0.00 0.00 0.00 99 1016.4
20240722063021 77 227 0.9 0.9 0.00 0.00 0.00 99 1016.5
20240722062518 77 269 0.0 0.9 0.00 0.00 0.00 99 1016.6
20240722062018 77 239 0.0 0.0 0.00 0.00 0.00 99 1016.5
20240722061516 77 270 0.9 0.9 0.00 0.00 0.00 99 1016.6
20240722061014 77 264 0.0 0.0 0.00 0.00 0.00 99 1016.7
20240722060514 77 264 0.0 0.0 0.00 0.00 0.00 99 1016.8
20240722060013 77 264 0.0 0.0 0.00 0.00 0.00 99 1016.7
20240722055510 77 264 0.0 0.0 0.00 0.00 0.00 99 1016.9
20240722055008 77 260 0.0 0.0 0.00 0.00 0.00 99 1016.9
20240722054507 77 265 0.0 0.0 0.00 0.00 0.00 99 1016.8
20240722054005 77 264 0.0 0.0 0.00 0.00 0.00 99 1016.9
20240722053502 77 254 0.0 0.0 0.00 0.00 0.00 99 1016.9
20240722053000 77 264 0.0 0.0 0.00 0.00 0.00 99 1016.8
20240722052459 77 263 0.0 0.0 0.00 0.00 0.00 99 1017.0
20240722051957 77 264 0.0 0.0 0.00 0.00 0.00 99 1016.8
20240722051456 77 253 0.0 0.0 0.00 0.00 0.00 99 1016.9
20240722050955 77 157 0.0 0.0 0.00 0.00 0.00 99 1017.1